Regional Weather Roundup
Issued by NWS

Home | Current Version | Previous Version | Text Only | Print | Product List | Glossary Off
Versions: 1 2 3 4 5 6 7 8 9 10 11 12 13 14 15 16 17 18 19 20 21 22 23 24 25 26 27 28 29 30 31 32 33 34 35 36 37 38 39 40 41 42 43 44 45 46 47 48 49 50

000
ASUS43 KLSX 080857
RWRMO

WEATHER SUMMARY FOR MISSOURI
NATIONAL WEATHER SERVICE SPRINGFIELD MO
300 AM CST MON FEB 08 2016

NOTE: "FAIR" INDICATES FEW OR NO CLOUDS BELOW 12,000 FEET WITH NO
       SIGNIFICANT WEATHER AND/OR OBSTRUCTIONS TO VISIBILITY.
       CURRENT SKY AND/OR WEATHER CONDITIONS ARE NOT AVAILABLE FOR
       CHILLICOTHE AND FARMINGTON.

MOZ001>031-035>038-043-044-053-054-081000-
...NORTHERN AND WESTERN MISSOURI...

CITY           SKY/WX    TMP DP  RH WIND       PRES   REMARKS
KANSAS CTY INT FLURRIES  33  23  66 NW25G32   29.99S WCI  20
LEE`S SUMMIT   CLOUDY    34  21  59 NW24G31   29.98S WCI  21
ST JOSEPH      CLOUDY    33  21  61 N24G31    29.99F WCI  20
CHILLICOTHE      N/A     31  20  63 NW17G29   29.94R WCI  19

$$
MOZ066>068-077>081-088>096-101>105-081000-
...SOUTHWEST MISSOURI...

CITY           SKY/WX    TMP DP  RH WIND       PRES   REMARKS
SPRINGFIELD    CLOUDY    38  20  48 W18G28    29.95F WCI  28
JOPLIN         CLEAR     36  21  54 W17G26    30.05F WCI  26

$$
MOZ032>034-039>042-045>050-055>058-069>072-081000-
...CENTRAL MISSOURI...

CITY           SKY/WX    TMP DP  RH WIND       PRES   REMARKS
COLUMBIA       NOT AVBL
JEFFERSON CITY CLOUDY    36  24  62 W22G28    29.89F WCI  25
ROLLA          CLOUDY    33  26  75 W13       29.85F WCI  24
SEDALIA        LGT SNOW  34  28  79 NW14      29.93S WCI  25

$$
MOZ051-052-059>065-081000-
...EAST CENTRAL MISSOURI...

CITY           SKY/WX    TMP DP  RH WIND       PRES   REMARKS
ST LOUIS INTL  CLOUDY    39  28  64 W18G24    29.80F WCI  30

$$
MOZ072>076-082>087-097>100-106>115-081000-
...SOUTH CENTRAL AND SOUTHEAST MISSOURI...

CITY           SKY/WX    TMP DP  RH WIND       PRES   REMARKS
CAPE GIRARDEAU PTCLDY    38  26  62 NW22G28   29.84R WCI  27
POPLAR BLUFF   CLEAR     42  20  41 W12G21    29.86F
WEST PLAINS    CLOUDY    38  20  48 NW17G29   29.91F WCI  28

$$


USA.gov is the U.S. government's official web portal to all federal, state and local government web resources and services.